Time,TemperatureF,DewpointF,PressureIn,WindDirection,WindDirectionDegrees,WindSpeedMPH,WindSpeedGustMPH,Humidity,HourlyPrecipIn,Conditions,Clouds,dailyrainin,SoftwareType,DateUTC
2013-09-03 07:35:00,66.7,66.1,29.54,NE,38,0.0,0.0,98,0.00,,,0.02,Wunderground v.1.15,2013-09-03 11:35:00,
2013-09-03 07:40:00,66.8,65.9,29.54,NE,38,0.0,0.0,97,0.00,,,0.02,Wunderground v.1.15,2013-09-03 11:40:00,
2013-09-03 07:45:00,66.8,66.2,29.54,NE,38,0.0,0.0,98,0.00,,,0.02,Wunderground v.1.15,2013-09-03 11:45:00,
2013-09-03 07:50:00,66.8,65.9,29.54,NE,38,0.0,0.0,97,0.00,,,0.02,Wunderground v.1.15,2013-09-03 11:50:00,
2013-09-03 08:00:00,66.9,66.0,29.54,NE,38,0.0,0.0,97,0.00,,,0.02,Wunderground v.1.15,2013-09-03 12:00:00,
2013-09-03 08:05:00,66.8,65.9,29.54,NE,38,0.0,0.0,97,0.00,,,0.02,Wunderground v.1.15,2013-09-03 12:05:00,
2013-09-03 08:10:00,66.9,66.0,29.54,NE,38,0.0,0.0,97,0.00,,,0.02,Wunderground v.1.15,2013-09-03 12:10:00,
2013-09-03 08:15:00,66.9,66.0,29.54,NE,38,0.0,0.0,97,0.00,,,0.02,Wunderground v.1.15,2013-09-03 12:15:00,
2013-09-03 08:20:00,67.0,66.1,29.55,NE,38,0.0,0.0,97,0.00,,,0.02,Wunderground v.1.15,2013-09-03 12:20:00,
2013-09-03 08:30:00,67.2,66.6,29.55,NE,38,0.0,0.0,98,0.00,,,0.02,Wunderground v.1.15,2013-09-03 12:30:00,
2013-09-03 08:35:00,67.3,66.7,29.54,NE,38,0.0,0.0,98,0.00,,,0.02,Wunderground v.1.15,2013-09-03 12:35:00,
2013-09-03 08:40:00,67.5,66.9,29.55,NE,38,0.0,0.0,98,0.00,,,0.02,Wunderground v.1.15,2013-09-03 12:40:00,
2013-09-03 08:45:00,67.6,67.0,29.55,NE,38,0.0,0.0,98,0.00,,,0.02,Wunderground v.1.15,2013-09-03 12:45:00,
2013-09-03 08:55:00,67.7,66.8,29.54,NE,38,0.0,0.0,97,0.00,,,0.02,Wunderground v.1.15,2013-09-03 12:55:00,
2013-09-03 09:00:00,67.8,67.2,29.54,NE,38,0.0,0.0,98,0.00,,,0.02,Wunderground v.1.15,2013-09-03 13:00:00,
2013-09-03 09:05:00,67.9,67.3,29.54,NE,38,0.0,0.0,98,0.00,,,0.02,Wunderground v.1.15,2013-09-03 13:05:00,
2013-09-03 09:10:00,68.0,67.4,29.54,NE,38,0.0,0.0,98,0.00,,,0.02,Wunderground v.1.15,2013-09-03 13:10:00,
2013-09-03 09:15:00,68.0,67.1,29.54,NE,38,0.0,0.0,97,0.00,,,0.02,Wunderground v.1.15,2013-09-03 13:15:00,
2013-09-03 09:25:00,68.1,67.2,29.55,NE,38,0.0,0.0,97,0.00,,,0.02,Wunderground v.1.15,2013-09-03 13:25:00,
2013-09-03 09:30:00,68.2,67.3,29.55,NE,38,0.0,0.0,97,0.00,,,0.02,Wunderground v.1.15,2013-09-03 13:30:00,
2013-09-03 09:35:00,68.3,67.4,29.55,NE,38,0.0,0.0,97,0.00,,,0.02,Wunderground v.1.15,2013-09-03 13:35:00,
2013-09-03 09:40:00,68.4,67.5,29.55,NE,38,0.0,0.0,97,0.00,,,0.02,Wunderground v.1.15,2013-09-03 13:40:00,
2013-09-03 09:45:00,68.5,67.6,29.56,NE,38,0.0,0.0,97,0.00,,,0.02,Wunderground v.1.15,2013-09-03 13:45:00,
2013-09-03 09:55:00,68.8,67.9,29.56,NE,38,0.0,0.0,97,0.00,,,0.02,Wunderground v.1.15,2013-09-03 13:55:00,
2013-09-03 10:00:00,68.9,68.0,29.56,NE,38,0.0,0.0,97,0.00,,,0.02,Wunderground v.1.15,2013-09-03 14:00:00,
2013-09-03 10:05:00,69.0,68.1,29.56,NE,38,0.0,0.0,97,0.00,,,0.02,Wunderground v.1.15,2013-09-03 14:05:00,
2013-09-03 10:15:00,69.1,67.9,29.56,NE,38,0.0,0.0,96,0.00,,,0.02,Wunderground v.1.15,2013-09-03 14:15:00,
2013-09-03 10:20:00,69.2,68.0,29.55,NE,38,0.0,0.0,96,0.00,,,0.02,Wunderground v.1.15,2013-09-03 14:20:00,
2013-09-03 10:25:00,69.5,68.0,29.55,NE,38,0.0,0.0,95,0.00,,,0.02,Wunderground v.1.15,2013-09-03 14:25:00,
2013-09-03 15:20:00,73.4,69.3,29.51,SW,232,0.0,0.0,87,0.00,,,0.02,Wunderground v.1.15,2013-09-03 19:20:00,
2013-09-03 15:25:00,73.3,69.2,29.51,NE,53,0.0,0.0,87,0.00,,,0.02,Wunderground v.1.15,2013-09-03 19:25:00,
2013-09-03 15:30:00,73.1,69.0,29.51,NE,53,0.0,0.0,87,0.00,,,0.02,Wunderground v.1.15,2013-09-03 19:30:00,
2013-09-03 15:35:00,73.0,68.9,29.51,NE,53,0.0,0.0,87,0.00,,,0.02,Wunderground v.1.15,2013-09-03 19:35:00,
2013-09-03 15:40:00,72.9,69.1,29.51,NE,53,0.0,0.0,88,0.00,,,0.02,Wunderground v.1.15,2013-09-03 19:40:00,
2013-09-03 15:50:00,72.6,68.8,29.51,NE,53,0.0,0.0,88,0.00,,,0.02,Wunderground v.1.15,2013-09-03 19:50:00,
2013-09-03 15:55:00,72.3,68.2,29.51,ENE,61,0.0,0.0,87,0.00,,,0.02,Wunderground v.1.15,2013-09-03 19:55:00,
2013-09-03 16:00:00,72.1,68.0,29.51,ENE,61,0.0,0.0,87,0.00,,,0.02,Wunderground v.1.15,2013-09-03 20:00:00,
2013-09-03 16:15:00,71.5,67.8,29.51,ESE,111,0.0,0.0,88,0.00,,,0.02,Wunderground v.1.15,2013-09-03 20:15:00,
2013-09-03 16:25:00,71.3,67.2,29.51,ESE,111,0.0,0.0,87,0.00,,,0.02,Wunderground v.1.15,2013-09-03 20:25:00,
2013-09-03 16:30:00,71.3,67.2,29.51,ESE,111,0.0,0.0,87,0.00,,,0.02,Wunderground v.1.15,2013-09-03 20:30:00,
2013-09-03 16:35:00,71.2,66.8,29.51,ESE,114,0.0,0.0,86,0.00,,,0.02,Wunderground v.1.15,2013-09-03 20:35:00,
2013-09-03 16:40:00,71.1,66.4,29.52,ESE,114,0.0,0.0,85,0.00,,,0.02,Wunderground v.1.15,2013-09-03 20:40:00,
2013-09-03 16:45:00,71.1,66.4,29.52,ESE,114,0.0,0.0,85,0.00,,,0.02,Wunderground v.1.15,2013-09-03 20:45:00,
2013-09-03 16:55:00,71.0,66.3,29.52,East,84,0.0,0.0,85,0.00,,,0.02,Wunderground v.1.15,2013-09-03 20:55:00,
2013-09-03 17:00:00,70.8,65.0,29.52,NE,42,0.0,0.0,82,0.00,,,0.02,Wunderground v.1.15,2013-09-03 21:00:00,
2013-09-03 17:05:00,70.6,65.2,29.52,NE,42,0.0,0.0,83,0.00,,,0.02,Wunderground v.1.15,2013-09-03 21:05:00,
2013-09-03 17:10:00,70.5,64.4,29.52,ENE,66,0.0,0.0,81,0.00,,,0.02,Wunderground v.1.15,2013-09-03 21:10:00,
2013-09-03 17:20:00,70.1,64.0,29.52,East,88,0.0,0.0,81,0.00,,,0.02,Wunderground v.1.15,2013-09-03 21:20:00,
2013-09-03 17:25:00,70.1,64.3,29.52,East,87,0.0,0.0,82,0.00,,,0.02,Wunderground v.1.15,2013-09-03 21:25:00,
2013-09-03 17:30:00,70.0,64.6,29.52,East,87,0.0,0.0,83,0.00,,,0.02,Wunderground v.1.15,2013-09-03 21:30:00,
2013-09-03 17:35:00,69.9,64.2,29.52,East,94,0.0,0.0,82,0.00,,,0.02,Wunderground v.1.15,2013-09-03 21:35:00,
2013-09-03 18:25:00,69.2,64.5,29.52,NE,47,0.0,0.0,85,0.00,,,0.02,Wunderground v.1.15,2013-09-03 22:25:00,
2013-09-03 18:30:00,69.1,64.4,29.53,NE,47,0.0,0.0,85,0.00,,,0.02,Wunderground v.1.15,2013-09-03 22:30:00,
2013-09-03 18:35:00,68.9,64.2,29.53,NE,47,0.0,0.0,85,0.00,,,0.02,Wunderground v.1.15,2013-09-03 22:35:00,
2013-09-03 18:40:00,68.8,64.4,29.53,NE,47,0.0,0.0,86,0.00,,,0.02,Wunderground v.1.15,2013-09-03 22:40:00,
2013-09-03 18:50:00,68.6,64.6,29.53,NE,47,0.0,0.0,87,0.00,,,0.02,Wunderground v.1.15,2013-09-03 22:50:00,
2013-09-03 18:55:00,68.4,64.0,29.53,NE,47,0.0,0.0,86,0.00,,,0.02,Wunderground v.1.15,2013-09-03 22:55:00,
2013-09-03 19:00:00,68.3,63.9,29.54,NE,47,0.0,0.0,86,0.00,,,0.02,Wunderground v.1.15,2013-09-03 23:00:00,
2013-09-03 19:10:00,67.8,63.5,29.54,NE,47,0.0,0.0,86,0.00,,,0.02,Wunderground v.1.15,2013-09-03 23:10:00,
2013-09-03 19:15:00,67.6,63.3,29.54,NE,47,0.0,0.0,86,0.00,,,0.02,Wunderground v.1.15,2013-09-03 23:15:00,
2013-09-03 19:20:00,67.2,63.2,29.54,NE,47,0.0,0.0,87,0.00,,,0.02,Wunderground v.1.15,2013-09-03 23:20:00,
2013-09-03 19:30:00,66.7,63.0,29.55,NE,47,0.0,0.0,88,0.00,,,0.02,Wunderground v.1.15,2013-09-03 23:30:00,
2013-09-03 19:55:00,65.7,62.4,29.56,NE,47,0.0,0.0,89,0.00,,,0.02,Wunderground v.1.15,2013-09-03 23:55:00,
2013-09-03 20:00:00,65.5,62.5,29.56,NE,47,0.0,0.0,90,0.00,,,0.02,Wunderground v.1.15,2013-09-04 00:00:00,
2013-09-03 20:10:00,65.1,62.1,29.57,NE,47,0.0,0.0,90,0.00,,,0.02,Wunderground v.1.15,2013-09-04 00:10:00,
2013-09-03 20:15:00,64.9,61.9,29.57,NE,47,0.0,0.0,90,0.00,,,0.02,Wunderground v.1.15,2013-09-04 00:15:00,
2013-09-03 20:30:00,64.3,61.6,29.57,NE,47,0.0,0.0,91,0.00,,,0.02,Wunderground v.1.15,2013-09-04 00:30:00,